Duluth, MN

12:12 PM CST on November 20, 2017 (GMT -0600)
Duluth International

Weather History for KDLH - August, 2014

Change the Weather History Date:

Saturday, August 9, 2014

  Actual Average Record
Temperature  
Mean Temperature 68 °F 66 °F  
Max Temperature 79 °F 76 °F 92 °F (1958)
Min Temperature 56 °F 55 °F 42 °F (1972)
Degree Days  
Heating Degree Days 0 2  
Month to date heating degree days 4 18  
Since 1 June heating degree days 206 260  
Since 1 July heating degree days 44 81  
Cooling Degree Days 3 3  
Month to date cooling degree days 17 27  
Year to date cooling degree days 149 151  
Since 1 June cooling degree days 131 147  
Growing Degree Days 17 (Base 50)    
Moisture  
Dew Point 58 °F    
Average Humidity 73    
Maximum Humidity 93    
Minimum Humidity 52    
Precipitation  
Precipitation 0.00 in 0.11 in 1.95 in (1935)
Month to date precipitation 0.01 1.02  
Year to date precipitation 20.33 18.02  
Snow  
Snow 0.00 in 0.00 in 0.00 in (2002)
Month to date snowfall 0.0 0.0  
Since 1 June snowfall T 0.0  
Since 1 July snowfall 0.0 0.0  
Snow Depth 0.00 in    
Sea Level Pressure  
Sea Level Pressure 30.13 in    
Wind  
Wind Speed 5 mph (ESE)    
Max Wind Speed 12 mph    
Max Gust Speed 15 mph    
Visibility 7 miles    
Events Fog    
T = Trace of Precipitation, MM = Missing Value Source: NWS Daily Summary

Daily Weather History Graph

Daily Weather History Graph

Search for Another Location

Airport or City:

Trip Planner

Search our weather history database for the weather conditions in past years. The results will help you decide how hot, cold, wet, or windy it might be!

Date:

Astronomy

Aug. 09, 2014 Rise Set
Actual Time 5:58 AM CDT 8:28 PM CDT
Civil Twilight 5:24 AM CDT 9:02 PM CDT
Nautical Twilight 4:41 AM CDT 9:45 PM CDT
Astronomical Twilight 3:52 AM CDT 10:34 PM CDT
Moon 7:28 PM CDT (8/9) 4:39 AM CDT (8/9)
Length of Visible Light 15h 38m
Length of Day
14h 30m
Waxing Gibbous, 98% of the Moon is Illuminated
Aug 9
Waxing Gibbous
Aug 10
Full
Aug 17
Last Quarter
Aug 25
New
Sep 2
First Quarter

Hourly Weather History & Observations

Time (CDT) Temp. Dew Point Humidity Pressure Visibility Wind Dir Wind Speed Gust Speed Precip Events Conditions
12:55 AM 64.0 °F 57.9 °F 80% 30.11 in 10.0 mi Calm Calm - N/A   Clear
1:55 AM 63.0 °F 57.0 °F 81% 30.11 in 10.0 mi ESE 3.5 mph - N/A   Scattered Clouds
2:55 AM 62.1 °F 57.0 °F 84% 30.11 in 10.0 mi Calm Calm - N/A   Clear
3:55 AM 61.0 °F 57.0 °F 87% 30.13 in 9.0 mi Calm Calm - N/A   Clear
4:55 AM 57.9 °F 55.0 °F 90% 30.13 in 7.0 mi Calm Calm - N/A Fog Patches of Fog
5:37 AM 57.0 °F 53.1 °F 87% 30.14 in 0.5 mi ESE 3.5 mph - N/A Fog Fog
5:47 AM 57.0 °F 53.1 °F 87% 30.14 in 0.5 mi Calm Calm - N/A Fog Fog
5:55 AM 57.9 °F 55.0 °F 90% 30.15 in 0.5 mi Calm Calm - N/A Fog Fog
6:13 AM 59.0 °F 57.0 °F 93% 30.15 in 0.1 mi ESE 3.5 mph - N/A Fog Fog
6:32 AM 59.0 °F 57.0 °F 93% 30.15 in 0.1 mi ESE 3.5 mph - N/A Fog Fog
6:55 AM 59.0 °F 57.0 °F 93% 30.15 in 0.1 mi Variable 3.5 mph - N/A Fog Fog
7:09 AM 60.1 °F 57.0 °F 90% 30.16 in 0.1 mi Variable 3.5 mph - N/A Fog Fog
7:41 AM 61.0 °F 60.1 °F 97% 30.16 in 0.1 mi Variable 3.5 mph - N/A Fog Fog
7:51 AM 62.6 °F 60.8 °F 94% 30.16 in 0.5 mi Variable 3.5 mph - N/A Fog Fog
7:55 AM 63.0 °F 61.0 °F 93% 30.16 in 0.5 mi Variable 3.5 mph - N/A Fog Fog
8:04 AM 63.0 °F 60.1 °F 90% 30.16 in 3.0 mi Calm Calm - N/A   Scattered Clouds
8:55 AM 69.1 °F 57.9 °F 68% 30.16 in 10.0 mi Variable 3.5 mph - N/A   Clear
9:55 AM 73.0 °F 59.0 °F 61% 30.15 in 10.0 mi ESE 6.9 mph - N/A   Clear
10:55 AM 75.0 °F 57.9 °F 55% 30.15 in 10.0 mi ESE 5.8 mph - N/A   Clear
12:55 PM 77.0 °F 59.0 °F 54% 30.14 in 10.0 mi SE 9.2 mph - N/A   Scattered Clouds
1:55 PM 78.1 °F 59.0 °F 52% 30.13 in 10.0 mi South 10.4 mph - N/A   Scattered Clouds
2:55 PM 78.1 °F 61.0 °F 56% 30.12 in 10.0 mi SE 9.2 mph - N/A   Scattered Clouds
3:55 PM 75.0 °F 59.0 °F 57% 30.13 in 10.0 mi ESE 10.4 mph - N/A   Partly Cloudy
4:55 PM 75.9 °F 61.0 °F 60% 30.12 in 10.0 mi SE 5.8 mph - N/A   Partly Cloudy
5:55 PM 75.9 °F 61.0 °F 60% 30.11 in 10.0 mi SE 8.1 mph - N/A   Partly Cloudy
6:55 PM 73.9 °F 59.0 °F 59% 30.10 in 10.0 mi ESE 9.2 mph - N/A   Partly Cloudy
7:55 PM 70.0 °F 59.0 °F 68% 30.10 in 10.0 mi ESE 6.9 mph - N/A   Partly Cloudy
8:55 PM 66.9 °F 57.0 °F 70% 30.11 in 10.0 mi ESE 6.9 mph - N/A   Partly Cloudy
9:55 PM 64.9 °F 57.0 °F 75% 30.10 in 10.0 mi East 6.9 mph - N/A   Partly Cloudy
10:55 PM 66.0 °F 57.0 °F 73% 30.10 in 10.0 mi ESE 4.6 mph - N/A   Scattered Clouds
11:55 PM 66.0 °F 59.0 °F 78% 30.11 in 10.0 mi East 3.5 mph - N/A   Mostly Cloudy